Weather History for 94368 - July, 2013

Change the Weather History Date:

Sunday, July 7, 2013

  Actual Average Record
Temperature  
Mean Temperature 70 °F -  
Max Temperature 71 °F - - ()
Min Temperature 68 °F - - ()
Cooling Degree Days 4    
Growing Degree Days 20 (Base 50)    
Moisture  
Dew Point 70 °F    
Average Humidity 99    
Maximum Humidity 100    
Minimum Humidity 94    
Precipitation  
Precipitation 0.00 in - - ()
Sea Level Pressure  
Sea Level Pressure 30.15 in    
Wind  
Wind Speed 17 mph ()    
Max Wind Speed 25 mph    
Max Gust Speed -    
T = Trace of Precipitation, MM = Missing Value Source: Averaged Metar Reports

Daily Weather History Graph

Daily Weather History Graph

Search for Another Location

Airport or City:

Trip Planner

Search our weather history database for the weather conditions in past years. The results will help you decide how hot, cold, wet, or windy it might be!

Date:

Astronomy

Jul. 07, 2013 Rise Set
Actual Time 6:40 AM AEST 5:37 PM AEST
Civil Twilight 6:16 AM AEST 6:01 PM AEST
Nautical Twilight 5:49 AM AEST 6:28 PM AEST
Astronomical Twilight 5:22 AM AEST 6:55 PM AEST
Moon 5:29 AM AEST (7/7) 4:49 PM AEST (7/7)
Length of Visible Light 11h 44m
Length of Day
10h 56m
Waning Crescent, 1% of the Moon is Illuminated
Jul 7
Waning Crescent
Jul 8
New
Jul 16
First Quarter
Jul 23
Full
Jul 30
Last Quarter

Hourly Weather History & Observations

Time (AEST) Temp. Dew Point Humidity Pressure Visibility Wind Dir Wind Speed Gust Speed Precip Events Conditions
12:00 AM 70 °F - % 30.15 in - SSE 16.1 mph - -  
12:00 AM 69.8 °F 69.8 °F 100% 30.15 in - SSE 16.1 mph - N/A   Unknown
12:30 AM 69.8 °F 69.8 °F 100% 30.12 in - SSE 16.1 mph - N/A   Unknown
1:00 AM 69.8 °F 69.8 °F 100% 30.12 in - SSE 16.1 mph - N/A   Unknown
1:30 AM - - N/A% 30.12 in - SE 15.0 mph - N/A   Unknown
2:00 AM 69.8 °F 69.8 °F 100% 30.12 in - SSE 13.8 mph - N/A   Unknown
2:30 AM 69.8 °F 69.8 °F 100% 30.12 in - SSE 13.8 mph - N/A   Unknown
3:00 AM 69 °F - % 30.12 in - SSE 13.8 mph - -  
3:00 AM 69.8 °F 69.8 °F 100% 30.12 in - SSE 13.8 mph - N/A   Unknown
3:30 AM - - N/A% 30.12 in - SSE 13.8 mph - N/A   Unknown
4:00 AM - - N/A% 30.12 in - SSE 12.7 mph - N/A   Unknown
4:30 AM - - N/A% 30.12 in - SSE 13.8 mph - N/A   Unknown
5:00 AM - - N/A% 30.12 in - South 12.7 mph - N/A   Unknown
5:30 AM - - N/A% 30.12 in - SSE 15.0 mph - N/A   Unknown
6:00 AM 68 °F - % 30.14 in - SSE 13.8 mph - -  
6:00 AM - - N/A% 30.12 in - SSE 13.8 mph - N/A   Unknown
6:30 AM - - N/A% 30.15 in - SSE 17.3 mph - N/A   Unknown
7:00 AM - - N/A% 30.15 in - SSE 16.1 mph - N/A   Unknown
7:30 AM - - N/A% 30.15 in - SSE 16.1 mph - N/A   Unknown
8:00 AM - - N/A% 30.15 in - SSE 18.4 mph - N/A   Unknown
8:30 AM 69.8 °F 69.8 °F 100% 30.18 in - SSE 17.3 mph - N/A   Unknown
9:00 AM 70 °F 69 °F 97% 30.19 in - SSE 18.4 mph - -  
9:00 AM 69.8 °F 69.8 °F 100% 30.18 in - SSE 18.4 mph - N/A   Unknown
9:30 AM 69.8 °F 69.8 °F 100% 30.18 in - SSE 19.6 mph - N/A   Unknown
10:00 AM 69.8 °F 69.8 °F 100% 30.18 in - SSE 19.6 mph - N/A   Unknown
10:30 AM 71.6 °F 69.8 °F 94% 30.18 in - SSE 21.9 mph - N/A   Unknown
11:00 AM 71.6 °F 69.8 °F 94% 30.18 in - SSE 20.7 mph - N/A   Unknown
11:30 AM 71.6 °F 69.8 °F 94% 30.15 in - SSE 23.0 mph - N/A   Unknown
12:00 PM 71 °F 70 °F 95% 30.16 in - SSE 23.0 mph - -  
12:00 PM 71.6 °F 69.8 °F 94% 30.15 in - SSE 23.0 mph - N/A   Unknown
12:30 PM 71.6 °F 69.8 °F 94% 30.15 in - SSE 24.2 mph - N/A   Unknown
1:00 PM 71.6 °F 69.8 °F 94% 30.12 in - SSE 24.2 mph - N/A   Unknown
1:30 PM 71.6 °F 69.8 °F 94% 30.12 in - SSE 24.2 mph - N/A   Unknown
2:00 PM 69.8 °F 69.8 °F 100% 30.12 in - SSE 23.0 mph - N/A   Unknown
2:30 PM 69.8 °F 69.8 °F 100% 30.12 in - SSE 24.2 mph - N/A   Unknown
3:00 PM 70 °F 69 °F 97% 30.12 in - SSE 23.0 mph - -  
3:00 PM 69.8 °F 69.8 °F 100% 30.12 in - SSE 23.0 mph - N/A   Unknown
3:30 PM 69.8 °F 69.8 °F 100% 30.12 in - SSE 23.0 mph - N/A   Unknown
4:00 PM 69.8 °F 69.8 °F 100% 30.12 in - SSE 24.2 mph - N/A   Unknown
4:30 PM 69.8 °F 69.8 °F 100% 30.12 in - SSE 24.2 mph - N/A   Unknown
5:00 PM 69.8 °F 69.8 °F 100% 30.12 in - SSE 24.2 mph - N/A   Unknown
5:30 PM 69.8 °F 69.8 °F 100% 30.15 in - SSE 25.3 mph - N/A   Unknown
6:00 PM 69 °F 69 °F 100% 30.16 in - SE 24.2 mph - -  
6:00 PM 69.8 °F 69.8 °F 100% 30.15 in - SE 24.2 mph - N/A   Unknown
6:30 PM 69.8 °F 69.8 °F 100% 30.15 in - SE 21.9 mph - N/A   Unknown
7:00 PM 69.8 °F 69.8 °F 100% 30.18 in - SE 23.0 mph - N/A   Unknown
7:30 PM 69.8 °F 69.8 °F 100% 30.18 in - SE 21.9 mph - N/A   Unknown
8:00 PM 69.8 °F 69.8 °F 100% 30.18 in - SE 24.2 mph - N/A   Unknown
9:00 PM 70 °F 69 °F 97% 30.21 in - SE 23.0 mph - -  
9:00 PM 69.8 °F 69.8 °F 100% 30.21 in - SE 23.0 mph - N/A   Unknown
9:30 PM 69.8 °F 69.8 °F 100% 30.21 in - SE 20.7 mph - N/A   Unknown
10:00 PM 69.8 °F 69.8 °F 100% 30.21 in - ESE 23.0 mph - N/A   Unknown
10:30 PM 69.8 °F 69.8 °F 100% 30.24 in - SE 21.9 mph - N/A   Unknown
11:00 PM 69.8 °F 69.8 °F 100% 30.24 in - SE 18.4 mph - N/A   Unknown
11:30 PM 69.8 °F 69.8 °F 100% 30.21 in - SE 19.6 mph - N/A   Unknown